Weather reports worldwide

Advertisment
Baltasound, United Kingdom (3002): temperature & dewpoint: 19.11.2017 09:00:00 - 25.11.2017 09:00:00 (GMT)Baltasound, United Kingdom (3002): wind speed & gusts: 19.11.2017 09:00:00 - 25.11.2017 09:00:00 (GMT)Baltasound, United Kingdom (3002): wind direction: 19.11.2017 09:00:00 - 25.11.2017 09:00:00 (GMT)Baltasound, United Kingdom (3002): reduced air pressure: 19.11.2017 09:00:00 - 25.11.2017 09:00:00 (GMT)Baltasound, United Kingdom (3002): visibility: 19.11.2017 09:00:00 - 25.11.2017 09:00:00 (GMT)Baltasound, United Kingdom (3002): precipitation: 19.11.2017 09:00:00 - 25.11.2017 09:00:00 (GMT)
Date & Time tt [°C] td [°C] ff [km/h] ff [kn] fx [km/h] fx [kn] dd ppp [hPa] vv [km] rr [mm]
25.11.2017 09:00:00 5,6 4,1 35 19 61 33 W 989,1 17 1,4
25.11.2017 08:00:00 5,4 3,7 41 22 63 34 W 988,9 21 -
25.11.2017 07:00:00 5,2 3,6 44 24 65 35 W 988,9 6 1,0
25.11.2017 06:00:00 4,6 2,7 44 24 70 38 W 989,3 11 0,8
25.11.2017 05:00:00 4,9 2,3 46 25 78 42 W 989,4 17 0,2
25.11.2017 04:00:00 4,8 1,9 39 21 68 37 WSW 990,1 19 0,0
25.11.2017 03:00:00 4,7 1,2 44 24 65 35 W 991,0 15 0,0
25.11.2017 02:00:00 4,2 0,9 46 25 65 35 W 991,8 18 0,4
25.11.2017 01:00:00 3,6 0,9 39 21 61 33 W 992,4 23 0,0
25.11.2017 00:00:00 4,1 0,8 35 19 61 33 W 992,7 15 0,0
24.11.2017 23:00:00 4,1 0,2 37 20 55 30 W 992,8 23 0,2
24.11.2017 22:00:00 3,2 0,5 31 17 52 28 W 993,0 27 0,0
24.11.2017 21:00:00 2,0 0,6 13 7 54 29 W 992,8 9 1,2
24.11.2017 20:00:00 2,8 1,2 34 18 52 28 WNW 993,1 8 0,8
24.11.2017 19:00:00 3,8 2,3 28 15 50 27 WSW 992,3 23 0,4
24.11.2017 18:00:00 4,2 2,2 34 18 59 32 W 991,8 27 0,4
24.11.2017 17:00:00 4,2 1,1 34 18 59 32 W 991,4 25 0,2
24.11.2017 16:00:00 4,7 1,6 35 19 57 31 W 991,2 12 0,0
24.11.2017 15:00:00 4,5 1,3 44 24 74 40 W 991,0 26 0,6
24.11.2017 14:00:00 4,1 1,1 42 23 67 36 WSW 990,6 26 0,6
24.11.2017 13:00:00 4,5 1,5 42 23 81 44 W 990,5 23 1,0
24.11.2017 12:00:00 4,1 1,5 50 27 83 45 WSW 990,3 18 1,4
24.11.2017 11:00:00 4,8 2,3 48 26 78 42 WSW 989,7 13 0,4
24.11.2017 10:00:00 4,8 1,4 54 29 89 48 W 989,0 13 0,6
24.11.2017 09:00:00 4,6 1,2 54 29 91 49 W 988,4 20 0,2
24.11.2017 08:00:00 4,8 2,3 44 24 76 41 W 987,8 11 -
24.11.2017 07:00:00 4,8 1,0 57 31 81 44 W 987,1 18 0,0
24.11.2017 06:00:00 5,1 1,1 63 34 96 52 W 986,4 16 -
24.11.2017 05:00:00 4,7 0,5 65 35 91 49 W 985,8 18 0,2
24.11.2017 04:00:00 4,8 1,3 57 31 78 42 W 985,0 17 0,0
24.11.2017 03:00:00 5,2 1,6 54 29 78 42 W 984,7 14 0,2
24.11.2017 02:00:00 4,3 1,2 57 31 81 44 W 984,5 16 0,0
24.11.2017 01:00:00 4,5 1,3 55 30 80 43 W 984,1 15 0,4
24.11.2017 00:00:00 4,4 0,7 54 29 78 42 W 983,6 5 0,0
23.11.2017 23:00:00 5,4 0,7 50 27 74 40 W 983,0 16 0,0
23.11.2017 22:00:00 4,4 0,7 52 28 81 44 W 982,8 3,9 0,4
23.11.2017 21:00:00 4,0 2,3 39 21 70 38 WNW 982,4 14 0,4
23.11.2017 20:00:00 2,7 -0,2 54 29 76 41 W 982,4 40 0,6
23.11.2017 19:00:00 3,1 0,2 54 29 74 40 W 981,8 35 0,4
23.11.2017 18:00:00 2,5 -0,9 39 21 59 32 W 981,2 10 0,2
23.11.2017 17:00:00 3,7 -0,3 39 21 65 35 W 980,1 45 0,0
23.11.2017 16:00:00 4,6 -1,1 34 18 57 31 WNW 979,3 23 0,0
23.11.2017 15:00:00 4,2 -1,0 35 19 52 28 NW 978,6 28 0,0
23.11.2017 14:00:00 4,6 0,4 39 21 54 29 NW 977,7 29 0,0
23.11.2017 13:00:00 4,2 1,2 34 18 50 27 NW - - 0,0
23.11.2017 12:00:00 3,5 1,1 29 16 52 28 NW - - 0,0
23.11.2017 11:00:00 4,0 -0,7 24 13 - - WNW - - 0,0
23.11.2017 10:00:00 2,8 -0,7 11 6 - - WNW - - 0,0
23.11.2017 09:00:00 3,2 -0,7 15 8 - - NW 976,6 45 0,0
23.11.2017 08:00:00 2,8 -0,8 15 8 - - NW 976,6 45 0,0
23.11.2017 07:00:00 2,8 -2,2 11 6 - - NNW 976,5 40 0,0
23.11.2017 06:00:00 3,1 -2,2 15 8 - - NNW 976,6 50 0,0
23.11.2017 05:00:00 3,2 -2,6 18 10 - - NNW 976,5 40 0,0
23.11.2017 04:00:00 3,1 -2,6 18 10 - - N 977,1 30 0,0
23.11.2017 03:00:00 2,9 -2,8 18 10 - - NNW 977,9 50 0,0
23.11.2017 02:00:00 2,1 -3,9 22 12 - - NNW 979,0 40 0,0
23.11.2017 01:00:00 3,2 -3,3 26 14 - - NNW 979,3 40 0,0
23.11.2017 00:00:00 3,4 -2,5 24 13 - - N 979,6 40 0,0
22.11.2017 23:00:00 3,5 -1,4 22 12 - - NNW 979,9 30 0,0
22.11.2017 22:00:00 3,4 -1,2 28 15 - - N 980,9 30 0,0
22.11.2017 21:00:00 3,3 0,2 21 11 - - NNE 981,3 17 0,4
22.11.2017 20:00:00 3,5 0,0 29 16 - - N 982,0 14 0,0
22.11.2017 19:00:00 3,9 -1,4 26 14 - - NNE 982,0 30 0,0
22.11.2017 18:00:00 4,1 -0,7 29 16 46 25 NNE 982,5 27 0,0
22.11.2017 17:00:00 3,9 -1,1 31 17 48 26 NNE 983,2 26 0,0
22.11.2017 16:00:00 4,0 -0,4 39 21 54 29 NNE 983,5 28 0,0
22.11.2017 15:00:00 4,1 0,6 39 21 55 30 NNE 983,7 24 0,0
22.11.2017 14:00:00 4,1 0,8 42 23 57 31 NE 984,1 23 0,0
22.11.2017 13:00:00 4,3 0,4 41 22 59 32 NE 984,8 23 0,0
22.11.2017 12:00:00 4,1 1,7 35 19 63 34 NE 985,4 15 0,0
22.11.2017 11:00:00 4,2 1,2 50 27 72 39 ENE 986,4 24 0,0
22.11.2017 10:00:00 3,6 1,4 52 28 80 43 ENE 987,0 19 0,4
22.11.2017 09:00:00 2,9 1,2 57 31 83 45 ENE 987,7 12 0,2
22.11.2017 08:00:00 2,7 1,1 61 33 83 45 ENE 988,3 6 0,6
22.11.2017 07:00:00 2,8 1,4 61 33 87 47 ENE 988,5 3,7 0,0
22.11.2017 06:00:00 2,9 1,0 67 36 83 45 ENE 989,2 6 0,6
22.11.2017 05:00:00 2,9 1,5 67 36 87 47 ENE 989,8 5 1,4
22.11.2017 04:00:00 3,5 2,1 61 33 85 46 ENE 991,1 6 1,2
22.11.2017 03:00:00 3,7 2,5 59 32 83 45 ENE 991,5 6 0,8
22.11.2017 02:00:00 3,8 2,3 59 32 85 46 E 992,7 10 0,8
22.11.2017 01:00:00 3,5 2,3 63 34 87 47 E 993,5 4,8 1,8
22.11.2017 00:00:00 3,9 2,7 57 31 76 41 E 994,1 3,8 1,0
21.11.2017 23:00:00 4,4 2,9 55 30 74 40 E 995,2 5 1,2
21.11.2017 22:00:00 4,7 3,4 42 23 59 32 E 996,7 5 1,2
21.11.2017 21:00:00 4,4 2,2 34 18 52 28 E 998,0 13 0,2
21.11.2017 20:00:00 4,4 2,0 35 19 50 27 ESE 999,0 16 0,6
21.11.2017 19:00:00 4,5 2,0 31 17 48 26 ESE 1000,2 25 0,0
21.11.2017 18:00:00 5,3 1,7 29 16 46 25 E 1001,2 45 0,0
21.11.2017 17:00:00 5,1 1,3 28 15 - - E 1002,4 50 0,0
21.11.2017 16:00:00 5,1 2,0 24 13 - - E 1003,3 45 0,0
21.11.2017 15:00:00 5,5 0,5 24 13 - - E 1004,3 35 0,0
21.11.2017 14:00:00 5,2 0,4 24 13 - - ESE 1005,3 50 0,0
21.11.2017 13:00:00 3,8 2,2 5 3 - - NE 1006,1 50 0,0
21.11.2017 12:00:00 3,7 2,2 26 14 - - SE 1007,3 30 0,0
21.11.2017 11:00:00 2,7 1,7 5 3 - - W 1007,8 50 0,2
21.11.2017 10:00:00 2,2 1,3 4 2 - - WNW 1008,7 50 -
21.11.2017 09:00:00 0,6 -0,4 4 2 - - WNW 1008,9 50 0,0
21.11.2017 08:00:00 0,6 -0,7 4 2 - - SW 1009,0 50 0,0
21.11.2017 07:00:00 2,7 1,3 11 6 - - NE 1009,3 50 0,0
21.11.2017 06:00:00 0,9 -0,3 4 2 - - S 1009,6 45 0,0
21.11.2017 05:00:00 1,1 -0,1 4 2 - - WSW 1010,1 45 0,0
21.11.2017 04:00:00 1,0 -0,2 5 3 - - W 1010,4 45 0,0
21.11.2017 03:00:00 1,1 -0,3 2 1 - - WSW 1010,6 50 0,0
21.11.2017 02:00:00 1,2 -0,4 11 6 - - WNW 1010,8 45 0,0
21.11.2017 01:00:00 2,6 0,8 9 5 - - NW 1011,1 35 0,0
21.11.2017 00:00:00 2,6 0,9 9 5 - - NNW 1011,4 45 0,0
20.11.2017 23:00:00 3,3 0,9 13 7 - - NNW 1011,4 50 0,0
20.11.2017 22:00:00 2,9 -0,2 13 7 - - NNW 1011,6 50 0,0
20.11.2017 21:00:00 2,6 -0,2 13 7 - - NNW 1011,9 45 0,0
20.11.2017 20:00:00 3,4 0,3 15 8 - - N 1011,5 45 0,0
20.11.2017 19:00:00 3,1 0,1 15 8 - - N 1011,4 40 0,0
20.11.2017 18:00:00 2,5 1,2 8 4 - - N 1011,4 25 0,0
20.11.2017 17:00:00 2,4 1,0 15 8 - - NNW 1011,6 40 0,0
20.11.2017 16:00:00 2,3 1,0 15 8 - - NNW 1011,8 30 -
20.11.2017 15:00:00 2,5 1,1 13 7 - - NNW 1011,9 40 0,2
20.11.2017 14:00:00 1,8 0,1 13 7 - - NW 1011,7 40 0,0
20.11.2017 13:00:00 1,3 -1,0 9 5 - - WNW 1011,7 50 0,0
20.11.2017 12:00:00 2,3 -0,3 11 6 - - N 1012,1 40 0,0
20.11.2017 11:00:00 1,6 -1,5 9 5 - - NW 1012,3 30 0,0
20.11.2017 10:00:00 0,6 -1,7 5 3 - - WNW 1012,2 40 0,0
20.11.2017 09:00:00 0,2 -2,1 5 3 - - W 1012,4 40 0,0
20.11.2017 08:00:00 0,1 -2,3 4 2 - - WNW 1012,1 50 0,0
20.11.2017 07:00:00 -0,2 -2,3 4 2 - - NNW 1012,0 50 0,0
20.11.2017 06:00:00 1,3 -0,1 9 5 - - N 1012,0 40 -
20.11.2017 05:00:00 -0,3 -1,9 5 3 - - WNW 1012,6 45 0,0
20.11.2017 04:00:00 1,9 0,0 13 7 - - NNW 1012,9 50 0,2
20.11.2017 03:00:00 1,7 -0,1 8 4 - - N 1013,6 35 0,0
20.11.2017 02:00:00 0,4 -1,4 11 6 - - WNW 1013,9 45 0,0
20.11.2017 01:00:00 0,0 -1,7 9 5 - - WNW 1014,2 40 0,0
20.11.2017 00:00:00 0,8 -1,0 9 5 - - NW 1014,5 40 0,0
19.11.2017 23:00:00 1,3 -1,0 9 5 - - NW 1014,7 35 0,0
19.11.2017 22:00:00 2,4 0,5 8 4 - - N 1015,0 25 0,6
19.11.2017 21:00:00 2,2 -0,4 13 7 - - N 1015,3 28 0,2
19.11.2017 20:00:00 1,7 -1,5 15 8 - - NW 1015,2 30 0,0
19.11.2017 19:00:00 2,9 -1,1 18 10 - - NW 1015,1 50 0,0
19.11.2017 18:00:00 3,4 -0,8 22 12 - - NW 1015,3 45 0,0
19.11.2017 17:00:00 2,8 -0,1 15 8 - - WNW 1015,4 45 0,0
19.11.2017 16:00:00 3,4 0,3 21 11 - - NW 1015,6 40 0,0
19.11.2017 15:00:00 3,8 -0,5 24 13 - - NW 1015,7 40 0,0
19.11.2017 14:00:00 4,4 1,2 26 14 - - NNW 1015,9 35 0,0
19.11.2017 13:00:00 4,9 1,9 31 17 48 26 NW 1015,6 20 0,2
19.11.2017 12:00:00 5,6 0,8 35 19 50 27 NW 1015,7 29 0,0
19.11.2017 11:00:00 4,7 0,5 29 16 46 25 WNW 1015,7 26 0,0
19.11.2017 10:00:00 4,9 1,2 31 17 48 26 NW 1015,3 16 0,0
19.11.2017 09:00:00 4,5 0,6 29 16 48 26 NNW 1015,1 20 0,0

tt = temperature
td = dewpoint
ff = wind speed
fx = gusts
dd = wind direction
ppp = reduced air pressure
vv = visibility
rr = precipitation

Next stations